Ionia, MI

4:22 PM EDT on May 22, 2017 (GMT -0400)
Ionia

Weather History for KY70 - March, 2013

Change the Weather History Date:

Saturday, March 2, 2013

  Actual Average (KGRR) Record (KGRR)
Temperature  
Mean Temperature 20 °F -  
Max Temperature 25 °F 37 °F 60 °F (1983)
Min Temperature 15 °F 21 °F -8 °F (1978)
Degree Days  
Heating Degree Days 45    
Moisture  
Dew Point 15 °F    
Average Humidity 77    
Maximum Humidity 88    
Minimum Humidity 67    
Precipitation  
Precipitation 0.00 in - - ()
Sea Level Pressure  
Sea Level Pressure 30.09 in    
Wind  
Wind Speed 6 mph (North)    
Max Wind Speed 10 mph    
Max Gust Speed -    
Visibility 10 miles    
Events Snow    
Averages and records for this station are not official NWS values.
T = Trace of Precipitation, MM = Missing Value Source: NWS Daily Summary

Daily Weather History Graph

Daily Weather History Graph

Search for Another Location

Airport or City:

Trip Planner

Search our weather history database for the weather conditions in past years. The results will help you decide how hot, cold, wet, or windy it might be!

Date:

Astronomy

Mar. 02, 2013 Rise Set
Actual Time 7:14 AM EST 6:31 PM EST
Civil Twilight 6:45 AM EST 6:59 PM EST
Nautical Twilight 6:12 AM EST 7:32 PM EST
Astronomical Twilight 5:40 AM EST 8:05 PM EST
Moon No Moon Rise 9:32 AM EST (3/2)
Length of Visible Light 12h 13m
Length of Day
11h 17m
Waning Gibbous, 74% of the Moon is Illuminated
Mar 2
Waning Gibbous
Mar 4
Last Quarter
Mar 11
New
Mar 19
First Quarter
Mar 27
Full

Hourly Weather History & Observations

Time (EST) Temp. Windchill Dew Point Humidity Pressure Visibility Wind Dir Wind Speed Gust Speed Precip Events Conditions
12:13 AM 24.1 °F 15.2 °F 17.4 °F 76% 30.11 in 10.0 mi North 8.1 mph - N/A   Overcast
12:33 AM 23.9 °F 15.8 °F 17.1 °F 75% 30.11 in 10.0 mi North 6.9 mph - N/A   Overcast
12:53 AM 23.7 °F 14.7 °F 16.7 °F 75% 30.10 in 10.0 mi North 8.1 mph - N/A   Overcast
1:13 AM 23.4 °F 14.3 °F 15.8 °F 73% 30.10 in 10.0 mi North 8.1 mph - N/A   Overcast
1:33 AM 22.6 °F 14.3 °F 15.4 °F 74% 30.10 in 10.0 mi North 6.9 mph - N/A   Overcast
1:53 AM 22.5 °F 13.2 °F 15.3 °F 74% 30.11 in 10.0 mi North 8.1 mph - N/A   Overcast
2:13 AM 21.9 °F 12.5 °F 14.9 °F 74% 30.10 in 10.0 mi North 8.1 mph - N/A   Overcast
2:33 AM 21.7 °F 14.3 °F 14.9 °F 75% 30.10 in 10.0 mi North 5.8 mph - N/A   Overcast
2:53 AM 21.2 °F 12.6 °F 14.5 °F 75% 30.10 in 10.0 mi North 6.9 mph - N/A   Overcast
3:13 AM 20.8 °F 11.2 °F 14.0 °F 75% 30.10 in 10.0 mi North 8.1 mph - N/A   Overcast
3:33 AM 20.1 °F 11.3 °F 13.5 °F 75% 30.10 in 10.0 mi North 6.9 mph - N/A   Overcast
3:53 AM 19.8 °F 11.9 °F 13.6 °F 77% 30.09 in 10.0 mi North 5.8 mph - N/A   Overcast
4:13 AM 19.2 °F 12.5 °F 13.1 °F 77% 30.09 in 10.0 mi NNW 4.6 mph - N/A   Overcast
4:33 AM 19.0 °F 13.9 °F 12.9 °F 77% 30.09 in 10.0 mi NNW 3.5 mph - N/A   Overcast
4:53 AM 18.5 °F 11.7 °F 12.6 °F 78% 30.09 in 10.0 mi NNW 4.6 mph - N/A   Overcast
5:13 AM 17.8 °F 8.5 °F 12.2 °F 79% 30.09 in 10.0 mi North 6.9 mph - N/A   Mostly Cloudy
5:33 AM 17.2 °F 8.9 °F 12.0 °F 80% 30.09 in 10.0 mi NNW 5.8 mph - N/A   Scattered Clouds
6:13 AM 16.3 °F 6.7 °F 11.7 °F 82% 30.09 in 10.0 mi North 6.9 mph - N/A   Clear
6:53 AM 15.8 °F 6.1 °F 11.5 °F 83% 30.09 in 10.0 mi North 6.9 mph - N/A   Clear
7:33 AM 15.6 °F 8.3 °F 11.7 °F 84% 30.10 in 10.0 mi NNW 4.6 mph - N/A   Mostly Cloudy
7:53 AM 16.5 °F 6.9 °F 12.2 °F 83% 30.10 in 10.0 mi North 6.9 mph - N/A   Overcast
8:13 AM 17.1 °F 7.6 °F 12.9 °F 84% 30.11 in 7.0 mi North 6.9 mph - N/A Snow Light Snow
8:33 AM 17.4 °F 7.1 °F 13.5 °F 84% 30.11 in 7.0 mi North 8.1 mph - N/A Snow Light Snow
8:53 AM 18.1 °F 7.9 °F 14.0 °F 84% 30.11 in 10.0 mi NNW 8.1 mph - N/A Snow Light Snow
9:13 AM 18.9 °F 8.8 °F 14.7 °F 84% 30.11 in 7.0 mi NNW 8.1 mph - N/A   Overcast
9:33 AM 19.4 °F 9.5 °F 15.1 °F 83% 30.10 in 10.0 mi NNW 8.1 mph - N/A   Overcast
9:53 AM 19.8 °F 9.1 °F 15.3 °F 83% 30.11 in 10.0 mi NNW 9.2 mph - N/A Snow Light Snow
10:13 AM 20.3 °F 9.8 °F 15.8 °F 83% 30.11 in 7.0 mi NNW 9.2 mph - N/A Snow Light Snow
10:33 AM 21.2 °F 10.1 °F 16.2 °F 81% 30.10 in 10.0 mi North 10.4 mph - N/A   Overcast
10:53 AM 22.1 °F 12.0 °F 16.5 °F 79% 30.10 in 10.0 mi NNW 9.2 mph - N/A Snow Light Snow
11:13 AM 22.5 °F 13.2 °F 16.7 °F 79% 30.10 in 10.0 mi NNW 8.1 mph - N/A Snow Light Snow
11:33 AM 23.5 °F 14.5 °F 17.4 °F 77% 30.10 in 10.0 mi NNW 8.1 mph - N/A Snow Light Snow
11:53 AM 23.7 °F 16.6 °F 16.9 °F 75% 30.10 in 10.0 mi North 5.8 mph - N/A Snow Light Snow
12:13 PM 24.6 °F 16.7 °F 17.2 °F 74% 30.10 in 10.0 mi North 6.9 mph - N/A   Overcast
12:33 PM 24.8 °F 19.1 °F 17.1 °F 72% 30.09 in 10.0 mi North 4.6 mph - N/A   Overcast
12:53 PM 24.8 °F 17.9 °F 16.7 °F 71% 30.09 in 10.0 mi NNW 5.8 mph - N/A   Overcast
1:13 PM 24.8 °F 19.1 °F 17.1 °F 72% 30.08 in 10.0 mi North 4.6 mph - N/A   Overcast
1:33 PM 25.0 °F 14.8 °F 17.2 °F 72% 30.08 in 10.0 mi NW 10.4 mph - N/A   Overcast
1:53 PM 25.2 °F 15.7 °F 17.2 °F 72% 30.07 in 10.0 mi North 9.2 mph - N/A   Overcast
2:13 PM 24.6 °F 16.7 °F 16.9 °F 72% 30.07 in 10.0 mi North 6.9 mph - N/A   Overcast
2:33 PM 24.6 °F 15.8 °F 16.9 °F 72% 30.07 in 10.0 mi NW 8.1 mph - N/A   Overcast
2:53 PM 24.8 °F 16.9 °F 16.7 °F 71% 30.07 in 10.0 mi North 6.9 mph - N/A   Overcast
3:13 PM 24.3 °F 16.3 °F 16.3 °F 72% 30.07 in 10.0 mi NNW 6.9 mph - N/A   Overcast
3:33 PM 24.6 °F 17.7 °F 16.5 °F 71% 30.07 in 10.0 mi North 5.8 mph - N/A   Overcast
3:53 PM 24.8 °F 16.9 °F 16.3 °F 70% 30.07 in 10.0 mi North 6.9 mph - N/A   Overcast
4:13 PM 24.6 °F 17.7 °F 16.2 °F 70% 30.07 in 10.0 mi NNE 5.8 mph - N/A   Overcast
4:33 PM 25.2 °F 17.3 °F 15.8 °F 68% 30.07 in 10.0 mi NE 6.9 mph - N/A   Overcast
4:53 PM 24.8 °F 16.1 °F 15.6 °F 68% 30.07 in 10.0 mi NNE 8.1 mph - N/A   Scattered Clouds
5:13 PM 24.8 °F 16.9 °F 15.3 °F 67% 30.07 in 10.0 mi NNE 6.9 mph - N/A   Clear
5:33 PM 25.0 °F - 15.3 °F 67% 30.07 in 10.0 mi Calm Calm - N/A   Clear
5:53 PM 24.8 °F 20.5 °F 15.4 °F 68% 30.07 in 10.0 mi ENE 3.5 mph - N/A   Clear
6:13 PM 23.9 °F 19.5 °F 14.9 °F 69% 30.07 in 10.0 mi ENE 3.5 mph - N/A   Clear
6:33 PM 23.2 °F - 14.9 °F 71% 30.07 in 10.0 mi Calm Calm - N/A   Clear
6:53 PM 22.3 °F - 14.9 °F 73% 30.07 in 10.0 mi Calm Calm - N/A   Clear
7:13 PM 21.2 °F - 14.9 °F 77% 30.07 in 10.0 mi Calm Calm - N/A   Clear
7:33 PM 19.9 °F 14.9 °F 14.7 °F 80% 30.07 in 10.0 mi South 3.5 mph - N/A   Clear
7:53 PM 18.7 °F - 14.0 °F 82% 30.07 in 10.0 mi Calm Calm - N/A   Clear
8:13 PM 19.2 °F - 14.0 °F 80% 30.07 in 10.0 mi Calm Calm - N/A   Clear
8:33 PM 18.5 °F - 14.4 °F 84% 30.07 in 10.0 mi Calm Calm - N/A   Clear
8:53 PM 19.0 °F - 14.4 °F 82% 30.07 in 10.0 mi Calm Calm - N/A   Clear
9:13 PM 18.9 °F - 14.2 °F 82% 30.07 in 10.0 mi Calm Calm - N/A   Clear
9:33 PM 18.9 °F 12.1 °F 14.0 °F 81% 30.08 in 10.0 mi WNW 4.6 mph - N/A   Clear
9:53 PM 17.8 °F 12.5 °F 13.6 °F 84% 30.08 in 10.0 mi NW 3.5 mph - N/A   Clear
10:13 PM 16.7 °F - 13.5 °F 87% 30.08 in 10.0 mi Calm Calm - N/A   Scattered Clouds
10:33 PM 16.5 °F 11.0 °F 13.1 °F 86% 30.08 in 10.0 mi North 3.5 mph - N/A   Scattered Clouds
10:53 PM 18.5 °F - 14.2 °F 83% 30.07 in 10.0 mi Calm Calm - N/A   Mostly Cloudy
11:13 PM 17.8 °F - 13.1 °F 82% 30.07 in 10.0 mi Calm Calm - N/A   Mostly Cloudy
11:33 PM 17.4 °F 12.1 °F 13.5 °F 84% 30.07 in 10.0 mi NW 3.5 mph - N/A   Scattered Clouds
11:53 PM 15.8 °F 8.6 °F 12.9 °F 88% 30.07 in 10.0 mi WNW 4.6 mph - N/A   Mostly Cloudy